Location: P�rn�nmaa
(61.1833°N, 23.0000°E)
Time: 18:39:34
(UTC+00:00)

Cosmos 1992 Rocket - Pass Details

Date: 08 December 2019
Orbit: 758 x 766 km, 74.0° (Epoch: 17 January)

Event Time Altitude Azimuth Distance (km) Brightness Sun altitude
Rises 15:40:23 0° 326° (NW) 3,237 7.4 -15.2°
Reaches altitude 10° 15:42:46 10° 324° (NW) 2,308 6.7 -15.5°
Maximum altitude 15:47:58 68° 242° (WSW) 826 4.4 -16.1°
Drops below altitude 10° 15:53:09 10° 161° (SSE) 2,300 6.5 -16.7°
Sets 15:55:31 0° 159° (SSE) 3,224 7.2 -16.9°
